Volver al catálogo

STARLINK-11229

ActivoComunicacionesVLEO
NORAD 60908·PAYLOAD·🇺🇸 United States

Lanzado Aug 31, 2024 desde Cape Canaveral Space Force Station

Loading…

Próximos Pases (próximas 24 horas)

TLE

ActualizadoSource: CelesTrak SupGP

Época: Sep 14, 2026, 20:39 UTC

1 60908C 24154F   26257.86090278  .00051545  00000+0  42460-3 0  2576
2 60908  53.1574 278.8552 0001051  98.9844 274.2068 15.69683483    19

Sigue STARLINK-11229 en tiempo real con AllMySat

Download on the App Store